Dutch Harbor, AK

12:06 PM AKDT on March 30, 2017 (GMT -0800)
Unalaska

Weather History for PADU - May, 2013

Change the Weather History Date:

Thursday, May 16, 2013

  Actual Average Record
Temperature  
Mean Temperature 36 °F -  
Max Temperature 39 °F 46 °F 51 °F (1952)
Min Temperature 32 °F 37 °F 25 °F (1989)
Degree Days  
Heating Degree Days 30    
Moisture  
Dew Point 25 °F    
Average Humidity 67    
Maximum Humidity 75    
Minimum Humidity 55    
Precipitation  
Precipitation 0.00 in - - ()
Sea Level Pressure  
Sea Level Pressure 29.89 in    
Wind  
Wind Speed 14 mph (NW)    
Max Wind Speed 20 mph    
Max Gust Speed 25 mph    
Visibility 10 miles    
Events Rain    
Averages and records for this station are not official NWS values.
T = Trace of Precipitation, MM = Missing Value Source: NWS Daily Summary

Daily Weather History Graph

Daily Weather History Graph

Search for Another Location

Airport or City:

Trip Planner

Search our weather history database for the weather conditions in past years. The results will help you decide how hot, cold, wet, or windy it might be!

Date:

Astronomy

May. 16, 2013 Rise Set
Actual Time 7:01 AM AKDT 11:04 PM AKDT
Civil Twilight 6:15 AM AKDT 11:51 PM AKDT
Nautical Twilight 5:09 AM AKDT 12:58 AM AKDT
Astronomical Twilight 3:34 AM AKDT 2:30 AM AKDT
Moon 1:06 PM AKDT (5/16) 3:15 AM AKDT (5/16)
Length of Visible Light 17h 35m
Length of Day
16h 03m
Waxing Crescent, 37% of the Moon is Illuminated
May 16
Waxing Crescent
May 17
First Quarter
May 24
Full
May 31
Last Quarter
Jun 8
New

Hourly Weather History & Observations

Time (AKDT) Temp. Windchill Dew Point Humidity Pressure Visibility Wind Dir Wind Speed Gust Speed Precip Events Conditions
12:56 AM 33.1 °F 24.9 °F 25.0 °F 72% 29.79 in 10.0 mi North 10.4 mph - 0.00 in   Overcast
1:56 AM 32.0 °F 22.5 °F 24.1 °F 73% 29.80 in 10.0 mi North 12.7 mph 24.2 mph 0.00 in   Overcast
2:56 AM 32.0 °F 21.2 °F 25.0 °F 75% 29.81 in 10.0 mi NNW 16.1 mph 21.9 mph 0.00 in   Overcast
3:56 AM 32.0 °F 21.2 °F 25.0 °F 75% 29.81 in 10.0 mi North 16.1 mph 21.9 mph 0.00 in   Overcast
4:56 AM 32.0 °F 20.8 °F 25.0 °F 75% 29.82 in 10.0 mi NNW 17.3 mph 23.0 mph 0.00 in   Overcast
5:16 AM 32.0 °F 20.5 °F 24.8 °F 75% 29.81 in 10.0 mi NNW 18.4 mph 25.3 mph 0.00 in   Overcast
5:56 AM 32.0 °F 21.2 °F 24.1 °F 73% 29.83 in 10.0 mi North 16.1 mph - 0.00 in   Overcast
5:57 AM 32.0 °F 20.8 °F 24.8 °F 75% 29.82 in 10.0 mi NNW 17.3 mph - N/A   Overcast
6:56 AM 32.0 °F 20.1 °F 25.0 °F 75% 29.85 in 10.0 mi NW 19.6 mph 24.2 mph N/A   Overcast
7:56 AM 32.0 °F 22.1 °F 24.1 °F 73% 29.86 in 10.0 mi NNW 13.8 mph 23.0 mph N/A   Overcast
9:56 AM 32.0 °F 21.2 °F 23.0 °F 69% 29.88 in 10.0 mi NNW 16.1 mph 20.7 mph 0.00 in   Overcast
11:56 AM 33.1 °F 23.4 °F 24.1 °F 70% 29.90 in 10.0 mi NNW 13.8 mph - 0.00 in Rain Light Rain
12:56 PM 33.1 °F 23.4 °F 24.1 °F 70% 29.92 in 8.0 mi NNW 13.8 mph 20.7 mph 0.00 in Rain Light Rain
1:04 PM 33.8 °F 25.3 °F 24.8 °F 70% 29.90 in 10.0 mi NNW 11.5 mph 20.7 mph 0.00 in   Overcast
1:56 PM 34.0 °F 23.4 °F 23.0 °F 64% 29.93 in 10.0 mi NNW 17.3 mph - 0.00 in   Overcast
2:56 PM 34.0 °F 26.6 °F 24.1 °F 67% 29.94 in 10.0 mi NW 9.2 mph - N/A   Overcast
3:31 PM 35.6 °F 25.9 °F 24.8 °F 65% 29.92 in 10.0 mi NNW 16.1 mph - N/A   Overcast
3:46 PM 35.6 °F 26.6 °F 23.0 °F 60% 29.92 in 10.0 mi NW 13.8 mph - N/A   Overcast
3:56 PM 36.0 °F 28.5 °F 23.0 °F 59% 29.94 in 10.0 mi NNW 10.4 mph - N/A   Overcast
4:54 PM 37.4 °F 30.3 °F 23.0 °F 56% 29.92 in 10.0 mi WNW 10.4 mph - N/A   Overcast
4:56 PM 37.0 °F 30.4 °F 23.0 °F 57% 29.94 in 10.0 mi WNW 9.2 mph - N/A   Overcast
6:56 PM 39.0 °F 31.0 °F 24.1 °F 55% 29.94 in 10.0 mi NNW 13.8 mph - N/A   Mostly Cloudy
7:56 PM 39.9 °F 33.4 °F 25.0 °F 55% 29.94 in 10.0 mi NW 10.4 mph - N/A   Mostly Cloudy
8:56 PM 39.0 °F 31.8 °F 26.1 °F 60% 29.94 in 10.0 mi NW 11.5 mph - N/A   Clear
9:56 PM 39.0 °F 32.8 °F 28.0 °F 65% 29.95 in 10.0 mi WNW 9.2 mph - N/A   Clear
10:56 PM 37.9 °F 32.7 °F 27.0 °F 65% 29.96 in 10.0 mi WSW 6.9 mph - N/A   Mostly Cloudy
11:56 PM 37.9 °F 30.0 °F 28.0 °F 68% 29.97 in 10.0 mi WSW 12.7 mph - N/A   Mostly Cloudy